Wind_Speed
2 3 4 5 5 5 5 6 4 3 3 3 1 3 4 6 4 1 4 6 3 4 7 6 6 7 10 10 7 4 4 8 10 9 11 12 12 13 14 14 13 15 15 14 16 16 16 14 14 15 15 16 17 19 20 19 19 18 19 22 24 27 28 26 23 21 21 19 18 17 16 16 14 14 14 13 13 13 12 10 8 8 8 8 9 9
2 5 5 4 5 5 5 5 5 4 3 2 3 4 5 6 4 1 5 6 1 3 5 3 4 8 10 11 9 3 5 9 11 12 14 15 15 14 15 17 15 13 11 10 12 14 16 15 16 16 16 17 18 20 21 19 18 19 20 22 23 25 27 27 25 23 22 21 21 19 15 15 14 13 13 14 15 14 11 10 9 8 7 7 8 8
3 6 6 4 5 4 4 4 5 4 3 3 2 3 5 4 3 3 4 2 1 3 5 3 4 10 12 12 11 6 7 9 9 12 14 16 16 15 15 17 17 15 13 12 13 15 18 18 17 17 17 18 18 19 20 20 18 19 21 20 21 24 25 27 26 26 24 21 21 18 14 13 12 11 11 13 14 13 11 10 9 8 7 7 7 7
3 4 4 5 6 5 4 3 5 3 2 3 3 4 5 1 1 4 3 1 2 4 7 7 6 9 10 10 10 5 6 6 5 8 12 14 16 17 17 17 18 19 18 17 17 17 18 18 17 17 17 17 17 17 19 21 20 20 21 20 21 24 25 26 28 27 24 20 19 15 11 12 11 11 11 11 12 11 11 10 9 8 7 7 7 8
4 2 2 5 6 7 5 4 5 4 3 3 4 6 6 3 6 8 3 2 4 3 4 6 6 6 5 6 5 1 1 4 4 7 11 14 17 16 16 16 18 19 20 19 19 19 18 17 17 16 16 16 16 17 18 20 21 21 23 23 23 25 26 27 28 27 23 19 18 15 12 12 10 11 12 11 11 11 10 10 10 9 8 7 7 8
4 1 5 6 4 5 5 4 6 6 4 2 5 9 11 10 10 7 0 3 5 2 2 1 4 3 1 3 4 0 2 4 3 8 12 15 17 16 13 15 17 18 18 18 18 19 17 16 16 15 15 16 16 16 16 19 20 21 23 22 24 28 29 29 27 26 24 22 20 18 16 14 13 13 12 12 12 10 9 9 10 10 9 8 8 8
2 4 6 6 5 5 5 4 4 5 4 3 3 8 11 10 7 5 4 2 3 2 1 0 4 4 2 3 3 2 5 6 3 6 10 11 13 15 13 13 15 16 16 16 18 18 16 15 15 14 15 16 15 16 17 19 20 21 24 22 24 28 29 28 26 26 26 24 21 18 16 14 13 14 13 11 11 10 9 10 11 11 10 9 9 9
2 5 6 6 5 5 5 5 5 8 5 2 2 5 7 7 7 7 7 6 3 3 2 2 2 5 4 2 2 3 6 7 3 2 4 7 10 12 13 13 13 13 14 14 16 17 16 15 14 13 14 14 15 17 18 21 21 21 24 25 25 24 23 23 24 27 27 23 19 17 15 12 12 14 13 11 10 11 11 10 10 11 11 11 11 11
3 5 7 7 5 4 6 5 7 10 6 3 3 4 3 4 5 6 6 5 1 2 4 2 3 4 5 1 1 1 4 5 4 6 7 6 7 10 12 13 11 11 12 12 13 13 13 13 12 12 13 14 16 18 19 20 21 21 22 26 26 22 20 22 24 26 25 20 18 17 14 12 13 14 14 12 11 12 11 10 11 12 12 12 12 12
2 3 5 7 6 6 7 4 8 13 7 1 5 4 3 3 2 3 4 3 2 2 6 3 5 4 5 2 1 1 2 3 6 8 8 7 7 8 10 11 10 7 6 7 8 8 8 8 10 12 13 15 17 20 20 17 20 23 22 24 27 23 20 23 25 25 23 20 20 19 15 14 16 17 15 13 11 11 10 11 13 13 13 14 13 13
2 0 2 4 5 5 4 2 6 10 5 3 5 4 2 3 2 2 1 1 2 4 4 3 6 5 4 2 1 0 1 4 7 8 9 9 8 8 8 9 9 5 3 4 5 5 5 5 9 12 14 16 17 19 20 17 18 23 24 23 24 23 21 23 25 24 23 22 22 20 18 17 18 19 18 15 13 11 11 12 13 13 14 14 14 14
0 1 2 3 4 2 2 2 3 3 1 1 2 1 1 1 2 2 2 2 4 4 1 1 4 4 5 3 0 1 3 6 8 9 11 12 10 8 8 8 7 5 4 5 4 3 3 4 9 12 13 16 16 18 20 20 19 23 24 23 22 22 22 23 24 23 22 23 22 19 18 18 19 20 19 17 16 15 15 14 12 12 13 13 14 14
2 4 3 3 3 5 4 3 2 2 3 3 2 2 2 1 2 2 2 2 4 3 2 1 3 3 6 4 2 3 5 7 7 8 11 12 10 7 7 7 5 4 5 4 2 1 1 3 5 7 11 15 16 16 18 18 19 21 22 23 24 22 22 23 21 20 21 21 20 17 17 18 19 20 19 18 18 18 18 16 15 14 14 14 15 15
2 2 1 2 2 5 7 6 4 3 5 6 5 4 4 2 2 2 2 1 4 2 2 0 2 2 4 1 3 5 6 7 7 7 8 8 7 5 4 5 4 5 5 4 4 4 5 6 6 5 4 9 11 13 15 14 17 21 20 21 22 21 20 21 19 19 20 19 17 16 16 19 21 20 18 18 19 19 19 18 18 18 17 17 16 14
2 1 3 5 1 3 10 10 5 2 4 5 4 3 4 3 2 2 3 3 4 0 3 1 2 3 3 1 3 4 4 6 6 6 6 5 4 2 2 4 5 6 6 7 8 9 9 10 13 9 6 7 7 7 11 11 14 17 16 16 19 19 18 18 18 19 20 18 17 17 17 20 21 20 19 19 21 20 18 18 18 17 16 15 14 13
2 3 3 3 1 4 9 7 3 3 2 2 2 2 3 3 2 0 0 0 1 0 1 1 2 2 2 1 2 3 3 5 6 6 5 4 2 1 1 2 5 6 8 10 9 9 9 10 15 16 14 13 9 7 7 9 12 13 12 13 17 19 18 17 18 19 19 18 19 18 19 21 22 20 19 20 22 20 19 18 18 17 16 15 13 12
1 2 1 1 2 5 5 4 5 5 3 3 3 4 1 1 2 2 0 2 1 3 1 1 2 1 1 1 1 2 3 5 6 6 6 6 5 5 5 5 4 6 9 9 7 7 8 9 11 14 15 14 12 9 8 10 12 12 12 14 17 19 19 20 21 20 20 20 20 20 20 22 22 20 19 22 23 21 20 19 17 17 16 14 13 12
1 2 1 1 4 3 1 1 3 3 2 3 3 3 3 1 1 1 1 1 0 4 2 0 2 2 2 2 1 2 3 4 6 6 7 7 7 6 5 6 6 6 8 8 7 7 8 9 11 13 15 15 12 10 10 12 14 15 17 19 21 22 23 24 23 23 22 21 21 21 22 22 23 20 19 22 22 21 21 19 17 16 15 15 14 13
1 4 2 1 3 1 1 2 2 1 1 1 1 2 3 2 2 2 2 2 2 3 1 1 1 2 3 2 0 1 3 5 5 6 7 7 7 6 4 5 6 6 7 7 8 7 7 9 11 13 16 17 14 11 13 17 19 20 23 24 23 24 24 24 24 24 23 21 22 23 22 22 23 21 20 22 21 20 20 19 17 16 16 16 14 12
1 3 2 1 2 2 1 1 1 1 1 1 1 1 1 2 1 2 1 1 2 3 1 1 1 2 3 1 0 2 3 3 4 5 6 6 6 6 5 3 4 5 5 5 6 6 7 11 13 15 17 19 18 15 17 22 25 24 23 22 20 20 22 22 23 23 22 22 23 23 22 22 24 22 21 21 21 20 20 19 17 17 17 16 13 12
1 2 2 1 1 3 1 1 1 1 2 2 3 4 2 1 0 1 1 0 1 2 2 2 2 1 1 1 2 3 3 1 2 4 6 7 7 7 7 6 3 3 3 3 6 7 8 11 15 19 20 20 21 20 21 24 24 20 19 20 20 21 23 23 24 23 23 23 24 23 22 22 23 23 21 21 20 20 20 19 18 18 16 15 13 12
0 1 2 2 1 3 2 2 2 2 1 2 3 3 3 2 2 3 3 1 1 1 1 2 3 1 2 2 3 2 1 2 3 5 6 7 9 8 8 9 8 7 7 5 3 5 8 11 14 17 20 22 23 24 22 19 18 16 16 20 24 24 24 25 25 24 24 24 24 23 22 22 22 22 22 21 19 19 19 19 18 17 16 15 14 12
1 1 1 2 2 3 3 1 2 3 3 2 0 1 0 1 2 4 5 2 1 1 1 0 3 1 1 2 2 2 4 5 6 6 6 6 8 8 8 9 10 10 10 9 8 6 7 11 15 16 18 22 25 26 21 17 17 17 16 20 25 25 25 25 25 25 24 24 22 21 21 22 22 22 21 20 19 19 20 19 18 17 16 15 14 13
2 1 1 1 2 3 2 3 4 3 3 2 2 3 2 2 2 2 2 1 2 2 2 2 3 1 1 2 3 6 7 7 7 6 6 7 7 8 9 10 10 10 10 10 9 9 8 8 12 13 13 17 19 19 15 13 15 17 17 20 25 26 25 26 26 26 25 25 23 22 22 23 23 22 21 20 19 20 20 19 18 17 16 16 15 13
2 0 1 1 2 2 1 2 3 2 1 1 2 3 3 3 2 1 2 1 2 2 2 3 3 0 1 3 6 8 8 8 8 7 7 7 7 8 8 9 10 10 10 10 9 9 9 10 11 10 5 7 8 8 11 12 13 14 15 19 24 26 27 28 28 27 25 25 25 25 25 25 24 24 22 20 19 20 20 18 18 17 17 16 14 12
2 2 1 2 3 5 3 1 1 1 1 1 1 4 6 4 2 1 2 3 4 2 3 3 2 1 3 4 6 8 9 9 7 7 8 8 8 8 8 8 8 9 9 9 8 7 8 9 12 13 10 6 7 10 12 15 15 14 13 16 20 22 24 25 25 25 25 26 26 26 26 26 25 24 22 21 20 20 19 18 17 18 17 15 13 11
2 2 1 2 2 3 2 0 1 2 2 2 3 6 7 6 4 2 2 2 3 4 4 3 2 5 7 7 7 7 8 9 7 7 7 8 8 8 8 8 8 8 8 8 8 8 9 10 11 13 13 13 13 12 12 12 11 10 11 11 10 11 14 16 16 16 17 20 22 22 22 24 24 24 23 21 20 19 18 17 17 18 17 13 11 11
2 3 1 3 3 1 0 1 2 1 1 2 4 5 7 8 5 3 2 2 0 3 3 2 5 8 9 8 7 6 7 8 7 7 7 7 7 8 8 9 9 10 10 11 11 11 11 10 11 13 14 15 15 15 14 12 10 9 10 9 8 9 13 16 17 15 12 12 13 14 14 16 18 18 19 19 18 17 17 17 17 17 15 13 11 11
2 3 2 3 3 3 3 1 2 4 4 4 6 7 8 9 8 4 3 4 3 2 1 4 9 7 5 7 7 6 7 8 7 7 7 7 8 8 10 10 11 12 12 12 11 12 12 11 10 12 14 15 15 17 19 19 17 16 16 14 12 12 14 17 19 17 15 15 16 17 16 15 15 15 15 17 17 16 16 16 16 15 13 12 11 10
1 2 3 3 3 4 3 3 4 5 4 4 8 9 8 8 8 8 5 4 4 2 3 8 10 6 5 5 8 8 7 7 8 7 8 9 9 9 11 11 12 14 13 10 9 10 11 12 11 13 15 15 15 17 19 19 18 19 20 18 17 17 16 17 18 17 17 18 19 18 18 17 16 15 15 17 18 17 15 14 14 13 11 11 10 9
1 2 2 2 3 2 3 4 4 3 3 4 9 12 11 8 7 7 7 6 4 2 6 9 9 6 5 6 9 8 7 8 9 9 10 10 9 10 12 13 13 14 12 10 9 10 11 12 13 14 16 16 16 17 18 19 21 22 21 20 20 20 19 19 19 19 18 19 20 20 20 21 19 18 17 16 17 16 14 12 12 11 10 10 9 8
2 2 2 1 3 2 2 3 3 1 3 3 9 13 12 8 5 5 5 4 4 2 7 7 5 3 4 7 9 8 9 11 11 11 10 9 10 11 13 13 13 13 12 11 11 12 13 13 13 15 16 17 19 19 17 19 24 25 24 25 25 25 25 24 23 22 22 22 22 22 22 22 20 20 19 17 17 16 14 12 12 11 10 9 8 8
1 3 3 2 3 2 3 2 1 0 3 1 5 8 8 5 5 5 4 5 6 1 4 3 2 5 6 8 9 9 10 11 11 10 8 8 10 12 13 13 13 13 12 11 12 13 13 13 14 16 17 18 20 20 18 22 27 25 24 27 30 30 31 29 27 27 26 26 25 24 22 22 21 21 20 19 18 17 15 14 13 13 12 12 10 9
1 2 2 1 2 0 2 1 1 2 2 1 1 5 6 4 6 5 4 7 7 2 4 4 5 8 7 6 9 10 10 10 9 9 8 8 10 11 12 12 12 12 12 11 11 12 12 13 16 18 19 19 20 20 20 24 29 29 28 29 31 32 33 34 33 31 30 28 27 26 25 25 25 25 24 23 21 20 19 18 18 17 16 15 14 13
2 2 2 1 1 2 1 0 2 2 1 2 2 4 6 3 5 4 4 8 9 5 9 10 9 8 7 7 9 11 11 10 10 11 11 9 9 11 12 12 11 11 11 10 10 10 11 13 16 19 20 21 22 23 23 24 28 32 33 32 32 33 33 35 36 34 32 30 30 29 29 29 29 29 28 27 26 25 24 23 22 20 19 18 18 17
2 2 2 1 1 2 2 1 1 2 2 2 2 5 6 3 4 4 2 7 10 5 6 10 9 9 10 10 9 10 10 10 10 11 11 9 9 10 11 10 10 10 10 9 9 11 12 14 16 18 20 23 26 29 29 28 31 34 33 32 33 34 34 36 36 33 31 30 29 29 29 29 29 28 27 27 27 27 27 26 24 22 21 20 20 19
2 2 2 1 1 1 3 3 2 3 2 3 2 4 5 4 5 4 1 4 7 4 4 8 11 11 11 11 10 8 7 8 9 8 8 8 8 9 10 10 9 10 10 10 10 12 14 16 19 22 24 27 28 28 28 31 34 35 34 32 31 31 31 33 32 29 27 27 27 26 24 24 25 24 23 24 24 24 24 24 24 22 20 20 20 19
1 2 2 2 1 0 3 4 2 2 1 3 4 5 4 4 6 5 2 2 6 5 4 8 11 10 9 10 8 5 3 6 8 5 6 8 7 8 10 12 12 11 11 10 11 13 14 16 21 25 26 27 26 26 27 31 34 34 33 33 32 29 28 29 27 25 25 25 25 24 21 20 21 20 19 18 18 19 17 17 17 16 15 16 18 18
6 3 1 3 2 1 2 3 2 2 1 3 7 8 6 4 5 4 2 0 4 5 4 7 9 8 7 6 3 1 2 5 6 3 3 6 7 8 9 10 11 12 12 12 13 13 13 16 20 23 24 23 23 24 26 30 33 33 30 29 30 30 28 26 25 25 24 24 24 23 22 22 21 20 19 16 14 13 11 11 11 10 9 10 11 12
6 3 2 4 3 2 3 3 2 2 2 4 9 10 7 3 1 2 1 1 3 5 6 7 8 7 6 4 3 3 3 4 5 3 2 5 6 8 9 8 9 11 12 13 14 15 14 16 18 20 21 20 21 24 26 29 32 31 26 23 26 26 23 22 23 24 23 23 22 22 21 21 21 21 19 17 15 12 10 9 8 7 6 7 7 6
3 2 2 4 4 3 4 4 3 2 2 5 10 10 6 1 2 0 2 2 3 5 6 6 7 6 6 5 4 4 4 5 7 5 2 4 5 7 9 8 9 12 13 13 16 18 18 17 19 20 20 19 22 25 27 29 28 25 21 20 21 20 18 19 20 21 21 21 21 20 20 19 18 18 17 16 14 13 11 10 9 8 7 5 4 3
2 2 3 3 3 2 2 3 3 2 2 6 12 10 4 1 0 2 2 1 5 6 6 6 6 6 6 7 7 6 7 8 7 5 1 3 5 6 8 8 10 13 14 14 16 20 22 21 22 23 22 21 23 25 27 28 25 21 19 20 18 16 17 18 19 19 20 20 19 19 18 17 16 16 15 14 12 12 11 10 9 9 8 7 5 4
3 1 2 3 2 1 2 3 3 2 3 10 13 7 2 3 2 2 3 4 6 7 6 5 5 5 8 10 10 9 9 8 6 5 5 5 5 6 7 7 8 10 12 13 14 17 21 22 21 22 21 21 23 25 27 28 25 20 19 19 17 15 17 18 18 19 20 20 19 18 17 17 16 16 15 14 13 12 12 10 9 9 9 8 7 6
4 2 2 2 2 2 3 4 3 1 4 9 8 4 3 4 1 2 5 6 6 6 6 6 7 7 9 11 10 9 8 7 6 5 5 5 6 6 6 7 8 9 11 12 13 18 21 20 19 20 20 20 22 24 26 26 24 20 18 17 15 14 15 16 17 19 19 19 19 18 17 16 15 15 14 13 13 12 11 10 9 9 8 7 6 5
5 3 2 3 3 3 4 3 1 1 3 5 4 3 4 4 4 5 7 8 7 5 5 7 9 9 8 9 8 7 7 7 7 6 6 5 6 6 6 6 7 9 10 10 13 17 19 19 19 20 19 19 21 23 24 24 23 21 18 17 15 14 14 14 15 16 15 16 15 15 14 13 13 13 13 12 11 10 9 8 7 7 6 6 5 4
3 2 1 3 3 4 6 5 3 3 4 5 4 4 5 6 6 6 8 9 8 7 6 7 9 9 7 7 7 6 5 6 6 6 6 6 6 6 7 7 7 8 10 10 12 16 18 18 18 17 17 17 18 21 22 22 22 21 18 16 16 15 14 14 15 15 14 14 14 13 12 11 10 10 10 10 9 8 7 7 5 4 4 4 4 4
3 2 2 2 1 2 4 6 5 5 5 5 6 7 7 7 6 6 8 9 9 9 9 9 9 9 7 6 5 4 5 6 6 6 5 5 6 6 6 6 6 7 9 10 12 15 17 16 14 13 14 15 16 19 20 20 20 19 16 15 15 15 14 14 14 14 13 12 12 12 12 11 11 10 9 9 9 8 8 7 6 4 4 4 4 4
2 2 2 4 4 3 4 4 4 6 7 6 6 6 6 7 7 7 8 9 10 10 10 10 9 8 6 5 4 4 5 5 5 5 4 4 4 4 4 5 6 7 9 10 12 14 15 14 13 13 13 14 15 17 18 18 17 16 15 14 13 12 13 13 12 12 11 10 10 10 10 10 11 10 8 9 9 9 9 9 7 6 6 5 4 4
2 1 1 2 4 5 5 3 3 6 8 8 7 6 5 6 8 8 9 10 11 11 10 9 8 7 7 6 4 4 5 4 4 5 5 4 3 3 3 4 5 7 8 9 10 12 13 13 13 12 12 12 13 14 15 15 15 14 13 13 12 11 11 11 11 10 10 9 9 9 9 9 9 8 7 8 8 8 9 9 8 7 6 5 5 4
1 2 1 2 4 5 4 2 1 3 6 5 5 5 4 4 8 10 9 9 10 10 10 10 8 7 8 9 7 6 5 3 3 4 5 4 4 4 4 5 6 7 8 9 10 11 12 12 11 10 10 9 10 10 12 12 13 13 12 11 11 11 11 10 9 8 8 7 7 8 9 8 8 8 7 7 7 7 8 8 8 7 6 5 4 4
2 2 1 2 5 5 3 3 1 2 4 3 1 3 2 2 6 8 8 7 7 8 9 10 9 8 7 9 9 8 7 6 6 6 5 4 5 6 7 8 8 9 10 11 11 11 11 10 10 9 8 7 8 8 9 10 11 11 10 10 9 9 9 9 8 7 6 6 7 7 8 8 8 8 7 7 6 6 6 6 6 7 7 6 4 4
Wind_Direction
180 181 194 200 176 156 176 195 195 159 128 127 185 265 270 277 277 137 247 259 247 269 277 275 268 263 268 273 261 231 219 227 222 212 208 203 206 209 208 206 201 203 206 200 196 195 198 198 187 179 181 186 189 193 192 188 181 175 176 178 181 189 195 193 193 197 194 184 183 181 175 173 169 165 167 168 172 176 178 176 177 186 187 191 197 202
187 209 212 196 161 153 174 176 151 142 153 184 231 265 277 270 282 271 261 275 241 238 265 262 267 266 262 269 269 226 206 229 219 207 208 206 207 211 209 210 208 206 203 196 195 198 201 199 190 184 185 186 187 192 192 189 184 179 181 182 180 184 191 196 198 198 195 189 187 184 178 174 168 166 167 169 173 175 176 177 178 179 177 184 189 194
195 223 223 191 162 126 103 139 149 154 170 195 214 255 266 268 309 283 250 269 192 225 270 279 267 272 271 273 274 246 219 233 224 211 210 205 206 210 210 208 209 209 204 198 198 203 205 200 190 185 186 188 186 187 190 189 186 184 187 186 180 181 189 199 204 200 196 193 192 188 177 168 163 165 167 167 171 172 174 172 170 172 171 172 174 178
191 244 232 177 160 136 105 134 147 144 177 196 205 240 257 281 354 269 233 183 212 231 269 282 282 275 271 270 272 252 229 249 255 235 225 213 208 210 209 205 203 206 205 201 202 206 206 200 192 186 185 186 184 182 185 189 187 186 190 187 182 182 187 196 203 202 196 193 193 188 170 162 157 158 160 159 165 168 169 167 167 171 168 164 169 172
214 292 121 140 162 164 148 143 158 188 226 213 213 234 256 237 223 246 279 334 282 246 247 268 272 263 257 258 255 173 223 268 263 244 233 222 218 214 209 206 205 208 206 201 202 207 207 200 192 186 182 182 182 180 180 184 184 186 190 187 184 188 192 198 203 201 193 189 188 178 158 152 147 151 157 158 162 165 164 166 168 169 167 167 171 173
235 168 126 130 160 181 171 176 187 205 229 241 216 219 236 237 226 231 306 352 292 264 151 261 273 258 210 248 244 120 319 285 245 228 229 223 220 218 212 207 209 213 211 206 204 208 208 202 192 181 178 181 184 184 184 182 181 185 186 182 181 189 198 204 203 197 191 187 185 175 161 156 155 158 163 164 164 164 164 166 168 167 168 171 173 176
229 155 155 154 163 180 191 215 202 191 219 268 218 208 224 233 227 212 183 197 264 279 123 273 288 283 271 248 258 305 302 290 266 234 238 230 221 220 215 211 212 212 212 210 208 209 208 202 189 175 174 179 182 184 185 182 183 185 185 183 179 182 195 203 199 196 192 188 185 178 169 166 164 162 162 164 164 163 164 163 165 166 167 171 173 175
153 150 168 170 164 173 200 230 198 178 200 247 174 184 197 208 212 201 197 210 248 316 289 194 243 272 273 243 247 298 292 285 297 309 273 248 234 228 223 225 225 220 218 216 211 211 209 202 191 176 171 174 176 179 181 181 183 184 184 189 186 181 192 199 197 198 195 188 183 178 173 171 169 164 157 156 160 162 164 162 164 169 170 170 168 169
131 171 184 173 165 187 210 217 174 173 208 247 157 158 164 178 197 187 191 219 236 314 273 201 171 252 270 224 172 276 273 280 331 351 331 294 259 242 232 234 237 234 229 220 214 213 213 206 191 172 165 171 172 172 175 178 181 183 180 186 192 189 190 194 197 200 195 188 182 177 172 165 166 166 154 149 157 160 162 162 164 168 169 166 161 163
88 212 196 167 176 210 216 194 162 178 207 217 136 130 96 106 131 162 188 207 154 244 262 206 170 238 279 269 203 211 246 295 331 331 324 316 288 254 240 239 237 234 223 214 213 215 217 209 183 164 160 168 170 170 172 170 174 180 175 177 187 190 187 190 196 197 192 189 185 180 175 165 164 165 155 147 149 154 161 165 165 165 166 164 161 163
57 299 156 174 202 215 211 170 170 186 185 104 134 137 92 101 104 124 162 164 180 237 259 192 182 226 281 287 226 197 352 322 316 315 315 317 301 258 236 240 237 223 192 201 218 218 214 187 161 156 159 163 163 167 175 173 169 175 176 173 178 182 183 188 193 193 189 188 185 181 177 170 166 165 159 153 151 156 164 165 164 164 165 165 164 164
346 203 172 216 210 157 161 177 180 199 189 115 171 177 146 142 126 130 135 153 220 243 317 85 172 199 246 258 77 13 346 326 311 314 313 311 300 263 229 231 236 224 200 195 208 224 197 149 146 152 157 156 154 160 172 176 171 172 174 171 170 172 177 185 190 189 186 185 183 179 176 174 171 169 166 163 163 167 169 166 164 163 164 164 162 161
241 222 229 266 213 172 184 200 161 147 196 205 196 199 221 203 144 180 184 176 236 251 32 43 169 186 249 268 24 348 329 329 322 319 313 307 298 269 229 215 220 213 192 171 174 212 149 127 137 145 150 151 152 157 164 171 171 171 172 170 168 169 174 182 185 183 182 182 179 176 176 177 175 172 172 174 174 173 171 168 164 161 160 160 158 158
238 238 213 232 237 188 187 206 212 179 183 191 182 183 200 185 158 192 180 195 254 264 50 80 191 221 261 288 20 336 331 335 332 328 317 308 303 287 234 206 201 193 177 140 106 98 90 88 84 70 103 134 145 158 164 167 167 168 171 171 169 167 173 181 181 179 180 178 175 176 179 179 177 176 178 180 178 174 171 169 165 161 160 160 160 159
214 275 185 188 185 164 190 213 225 147 159 181 176 177 200 204 205 219 203 219 249 214 67 88 190 216 235 66 1 325 334 342 342 345 330 313 314 307 220 191 186 190 166 118 105 113 115 118 121 122 123 123 131 156 167 170 163 162 165 167 167 166 170 178 179 177 178 176 176 179 181 181 180 179 181 181 178 173 170 168 164 162 162 163 163 161
227 273 225 201 107 164 196 206 157 131 168 167 152 184 222 218 186 253 334 356 284 210 104 196 226 248 252 338 345 322 344 359 2 7 7 358 6 75 95 145 165 173 143 116 111 113 117 129 138 145 146 137 140 156 165 168 162 159 159 161 168 170 173 180 180 179 180 179 178 180 183 184 183 181 181 179 176 173 171 169 165 165 166 167 166 165
200 256 228 311 238 199 209 196 167 197 201 131 177 202 200 168 139 129 87 69 13 256 215 184 243 279 257 243 3 336 334 8 14 16 31 30 36 66 62 65 103 131 125 122 130 124 124 139 141 141 138 132 138 150 155 159 160 161 163 165 171 174 179 185 184 182 185 182 180 182 185 187 185 182 181 179 177 175 174 172 170 171 172 172 171 170
209 254 226 254 243 222 237 215 181 200 161 138 200 185 114 84 116 129 235 107 156 251 239 133 267 283 257 249 27 352 329 360 13 22 38 40 43 56 66 72 86 120 137 144 156 149 138 141 138 133 129 124 130 141 144 151 162 174 182 183 182 180 183 186 183 183 185 182 182 185 188 189 187 183 183 181 178 178 177 176 176 178 178 176 173 170
213 257 255 195 249 297 36 201 175 150 178 215 283 132 137 227 203 148 215 203 212 246 226 153 266 261 236 235 34 318 320 337 356 26 39 42 44 44 60 86 94 119 149 164 166 158 137 129 129 129 127 123 128 137 145 158 174 188 194 192 187 183 183 183 181 182 183 183 186 187 188 190 188 185 186 185 181 180 179 178 179 179 177 175 169 167
134 251 253 168 243 305 360 226 221 172 166 159 180 180 218 280 237 176 183 207 232 246 234 211 242 231 218 207 252 274 307 335 353 27 39 40 40 37 47 84 121 125 137 161 158 150 138 130 127 129 129 129 135 145 159 171 182 189 188 184 180 179 180 180 181 183 183 186 189 187 186 189 188 186 189 189 184 182 178 177 177 175 173 171 165 162
116 221 245 230 266 270 229 89 359 224 205 207 199 198 192 134 69 210 146 64 262 223 191 230 251 237 185 197 241 266 286 327 31 45 44 36 32 34 33 30 41 82 92 126 143 146 141 132 131 133 132 132 141 159 174 179 183 182 173 171 174 177 181 182 183 185 187 188 188 185 185 188 188 187 190 191 188 183 177 174 174 172 171 168 162 158
166 185 227 266 276 250 239 82 106 171 205 248 238 218 201 163 167 210 209 163 320 249 183 221 255 249 112 194 233 251 306 6 52 66 58 37 30 31 29 29 31 30 27 34 81 128 125 115 116 123 128 136 152 171 178 174 172 170 167 172 175 177 182 184 183 186 192 191 186 184 186 188 187 188 190 190 188 182 176 173 172 172 172 170 163 159
120 147 207 252 251 265 297 13 138 144 126 142 299 348 327 165 182 224 230 189 149 215 111 139 262 272 102 234 227 99 63 40 46 66 69 48 32 27 25 32 37 34 29 25 27 55 92 106 109 115 130 147 165 176 174 166 167 169 171 175 177 178 183 185 185 189 194 192 186 183 186 187 186 186 187 188 187 182 176 173 173 174 175 171 163 159
93 40 298 282 281 292 340 86 122 125 117 126 40 31 16 297 289 259 247 164 167 179 152 205 235 198 147 211 132 94 74 52 41 48 61 58 42 31 29 35 38 35 32 28 29 34 39 75 100 112 140 165 176 173 158 152 162 168 172 175 177 181 185 187 188 189 190 187 184 184 187 187 184 182 184 184 183 181 176 173 172 174 175 170 162 158
121 103 281 291 293 272 185 133 150 148 81 66 12 12 5 336 305 208 120 133 214 202 177 224 236 166 130 146 121 105 89 66 44 40 55 60 52 41 35 36 40 40 36 29 32 36 30 36 55 66 100 172 172 125 99 109 138 159 171 177 179 183 187 189 190 190 187 183 182 182 184 184 181 179 179 179 179 179 176 171 170 172 172 168 161 156
143 142 197 221 252 251 232 199 192 181 3 355 347 357 6 5 318 256 140 180 218 188 172 217 229 147 161 135 121 118 102 81 57 47 53 57 55 54 49 42 41 41 34 24 24 35 41 43 49 48 43 50 76 87 101 122 144 160 170 175 181 184 185 185 186 187 184 181 180 180 179 178 176 174 173 173 175 175 173 169 167 168 168 165 159 154
115 91 96 139 196 254 266 352 309 307 299 295 344 356 1 358 324 271 194 191 184 154 187 226 137 153 172 148 124 120 103 88 68 50 53 58 56 59 63 60 56 50 39 34 35 39 47 52 54 51 43 46 64 89 113 127 140 152 157 163 171 171 166 167 174 177 175 173 172 170 169 169 168 167 167 167 169 170 168 165 164 164 162 159 153 151
125 107 116 110 107 165 188 280 295 343 39 22 9 3 1 2 350 266 250 326 103 169 202 201 145 159 168 150 131 114 98 93 81 62 60 64 59 59 65 63 64 62 49 43 44 43 45 49 50 48 42 43 57 74 81 75 70 88 116 128 129 127 135 148 162 167 159 145 128 116 122 135 143 148 152 154 155 158 158 158 158 157 154 150 148 149
121 121 161 138 118 140 140 96 77 91 82 52 37 29 16 15 25 23 336 337 327 284 210 147 151 150 140 128 108 86 92 98 90 81 78 76 71 69 67 60 59 61 53 43 42 44 44 43 41 43 42 40 47 59 65 62 61 68 78 90 103 111 121 136 147 148 142 129 114 106 108 110 111 116 124 130 133 138 144 148 151 151 147 145 146 149
99 122 163 159 133 124 102 78 91 107 109 56 39 37 27 22 37 41 26 9 3 9 125 139 133 97 59 88 88 81 95 98 87 84 80 76 75 75 72 64 58 59 56 46 42 46 49 48 46 46 45 43 44 54 60 62 66 72 74 79 91 101 113 126 128 124 123 121 119 121 122 117 113 113 113 116 119 124 130 135 140 142 141 142 147 151
320 148 148 144 158 137 69 62 75 104 139 81 42 32 23 19 29 30 24 20 20 83 134 137 125 86 48 79 92 91 93 86 78 75 71 68 70 74 73 67 60 60 59 52 49 52 54 52 50 51 50 49 52 61 65 68 73 77 76 76 80 91 107 117 116 111 110 111 114 118 119 117 118 118 116 115 117 119 123 126 130 134 136 140 144 150
4 134 129 137 202 190 53 42 38 74 171 109 40 22 12 14 9 347 347 350 333 159 143 141 136 117 104 100 92 82 77 78 75 69 66 67 70 74 74 70 67 64 60 55 53 56 57 54 53 56 57 57 60 64 66 72 75 76 78 80 82 90 101 105 104 102 100 103 108 111 113 116 116 114 113 115 113 114 118 122 123 124 124 126 131 140
27 143 143 161 211 197 36 6 347 309 213 180 28 3 349 2 357 332 335 347 330 271 156 157 130 123 131 121 100 86 77 75 72 65 63 68 71 73 75 75 74 71 69 65 61 61 61 58 54 56 58 62 66 66 67 73 76 75 78 84 88 91 95 97 97 96 95 99 103 105 108 112 110 105 105 107 108 111 114 113 109 107 106 106 110 120
103 132 120 147 209 148 25 344 205 205 243 206 44 345 330 343 2 7 26 11 359 55 106 95 112 122 129 122 110 103 88 74 70 65 59 63 73 78 77 74 74 75 74 71 67 66 68 68 66 63 62 65 68 69 68 72 76 78 77 80 84 86 88 90 90 89 90 93 97 100 102 103 101 98 97 99 103 106 108 104 99 97 98 100 102 104
143 126 97 128 157 102 86 181 186 194 336 142 145 4 349 332 351 11 50 32 25 71 107 109 114 108 96 96 104 106 97 84 75 63 51 50 65 78 78 70 63 65 68 69 70 69 66 68 72 70 67 68 71 73 72 71 75 78 77 76 78 79 81 83 83 83 85 87 91 94 96 98 98 96 95 95 96 97 97 97 95 93 93 94 94 93
186 147 118 114 47 112 138 98 131 140 62 94 132 18 6 348 347 352 57 39 20 28 111 118 117 105 101 104 103 104 104 95 76 55 42 40 50 64 70 63 54 53 56 60 67 71 68 67 72 73 73 75 77 77 77 79 81 81 80 79 79 79 79 80 80 79 80 82 84 88 91 95 95 94 93 93 92 91 90 90 89 89 90 90 90 90
224 186 146 128 5 104 119 85 96 146 96 43 32 10 359 341 338 327 299 26 22 27 114 127 124 119 118 117 115 123 123 99 76 48 19 17 35 52 54 48 48 57 62 62 67 74 76 77 80 81 80 80 80 80 81 83 85 84 83 82 82 81 80 79 79 78 78 79 81 83 85 89 92 91 89 88 86 84 85 85 84 85 86 86 86 86
18 261 218 151 110 12 122 113 115 155 95 20 351 339 340 331 316 296 259 360 22 39 109 134 126 120 125 129 134 155 141 89 80 56 356 351 12 43 49 44 44 52 63 71 77 78 77 80 84 85 83 82 82 84 86 86 85 84 83 83 82 82 82 81 80 80 79 80 83 85 85 88 90 91 89 85 82 79 79 80 77 76 77 80 80 77
34 352 288 112 100 74 108 105 85 82 81 359 333 323 326 331 312 282 220 55 17 33 77 117 118 112 113 119 126 163 116 101 97 80 345 348 4 25 40 45 46 51 57 65 75 81 82 85 88 86 83 81 81 85 87 85 83 83 81 80 80 80 79 80 84 86 86 85 85 85 84 84 85 87 88 88 87 83 79 76 76 74 75 78 77 70
26 5 27 72 81 91 94 92 78 69 39 344 328 319 316 319 271 240 230 5 38 60 83 99 103 96 83 70 49 44 73 105 119 140 298 334 5 25 34 38 45 56 62 66 76 85 84 85 87 85 80 81 84 86 85 82 80 78 76 76 77 76 76 80 84 87 87 85 84 81 79 78 78 80 80 80 81 80 76 72 73 72 66 68 72 68
14 1 37 64 76 81 88 100 100 70 17 334 323 316 310 238 167 356 352 11 87 99 100 88 75 65 55 52 58 55 57 91 122 152 257 328 19 49 53 54 63 72 76 81 90 94 90 85 87 86 85 87 89 87 83 81 78 76 73 72 71 73 79 85 86 85 83 80 78 76 75 75 75 76 76 76 77 78 74 67 61 57 50 41 39 44
8 16 36 43 48 41 66 99 100 99 67 345 326 310 291 173 109 358 7 119 124 109 102 83 61 56 62 70 79 92 103 109 119 131 87 27 40 56 59 61 67 74 81 87 93 97 96 93 93 93 93 94 92 87 83 81 79 76 74 73 71 76 86 89 87 85 83 80 77 74 72 72 73 74 73 72 73 73 70 64 59 59 60 55 42 35
340 344 57 41 13 15 65 73 65 78 22 348 336 321 339 26 20 66 94 110 108 99 98 88 75 84 95 94 94 99 104 101 90 80 77 71 62 57 57 58 60 69 80 84 87 94 96 95 94 95 95 95 92 88 84 83 82 79 76 76 79 86 91 91 90 89 86 84 81 77 74 71 69 68 66 62 62 63 60 55 52 53 57 59 56 53
358 358 85 59 341 3 59 55 39 2 322 336 344 352 1 357 347 135 106 94 88 83 87 88 85 89 96 97 98 98 96 95 89 85 87 88 87 81 76 75 78 83 88 91 97 102 101 97 95 95 94 94 92 88 86 86 86 83 80 80 86 91 91 90 91 88 85 83 81 78 75 71 66 63 60 55 52 52 49 44 41 42 45 49 53 58
24 17 75 68 42 52 71 67 46 302 318 338 357 356 356 27 80 102 101 99 92 82 88 95 95 92 89 93 99 100 102 113 118 114 106 94 90 89 87 88 97 104 106 106 108 108 105 102 100 97 93 93 94 92 91 91 91 90 88 87 88 90 91 91 89 85 82 79 77 74 73 70 66 62 58 54 52 49 42 34 29 31 32 34 39 43
38 7 64 78 79 90 80 61 36 21 16 23 41 38 32 52 71 89 100 101 98 96 98 100 103 102 100 103 108 107 109 115 109 98 93 88 82 81 88 94 103 111 115 116 115 115 112 108 104 100 96 95 97 97 95 92 91 94 96 94 92 92 93 91 88 85 81 75 71 68 66 65 65 63 57 53 52 51 43 34 29 27 24 24 27 26
35 30 59 66 75 110 74 45 27 29 31 34 54 64 59 57 58 75 96 103 107 108 108 110 113 114 115 116 112 97 93 97 92 82 79 83 82 82 91 101 108 117 124 127 128 127 122 114 109 105 101 99 100 100 98 93 91 92 94 93 94 96 97 96 93 89 84 77 69 63 59 56 54 51 47 43 42 42 39 34 33 36 33 25 19 17
4 16 39 45 51 71 71 51 49 62 56 47 56 69 71 76 77 80 95 109 114 114 115 119 118 114 115 117 111 100 96 97 99 101 94 83 82 82 89 103 120 130 133 136 139 135 128 122 119 115 109 106 107 106 104 100 96 93 90 89 90 94 96 96 94 91 87 79 71 63 57 53 47 42 37 35 34 34 30 27 30 37 37 32 24 15
299 2 10 42 73 87 94 94 97 84 67 52 52 63 73 93 101 101 106 114 118 121 123 123 121 126 135 138 128 112 109 109 115 122 121 111 107 108 107 118 131 138 141 146 145 137 130 127 124 120 115 112 113 113 110 106 101 94 90 89 90 93 95 94 90 86 82 74 66 59 51 45 39 34 31 31 32 32 26 25 33 41 41 36 30 22
4 79 105 124 96 93 106 122 121 93 85 68 51 59 69 96 111 115 118 121 125 131 132 130 131 137 146 153 155 144 134 136 141 137 133 133 136 139 136 133 134 135 142 147 145 140 136 132 129 126 123 121 122 120 116 112 105 96 90 90 91 93 95 95 91 85 79 71 63 55 48 41 35 31 29 29 33 35 31 35 48 61 60 53 45 47
30 56 342 95 89 85 104 130 137 93 99 100 59 54 61 98 114 116 120 124 129 136 140 141 143 147 156 167 172 168 159 157 159 154 147 151 158 151 142 138 136 136 140 143 141 141 143 142 140 140 137 138 145 145 137 129 121 110 99 95 96 98 99 96 92 86 78 73 68 62 55 46 41 42 41 39 41 43 42 48 61 66 62 66 92 99
Height
776 780 782 779 779 781 781 780 780 783 785 785 787 788 788 787 786 787 785 776 776 780 775 770 772 769 763 757 756 757 759 761 762 763 764 762 761 760 761 762 763 763 762 763 764 765 766 769 771 774 777 779 780 783 785 788 791 793 795 798 801 803 804 806 809 812 814 816 819 821 821 822 822 822 824 825 827 828 829 831 833 834 835 836 837 838
778 782 779 776 777 777 778 780 782 785 787 786 787 787 786 786 785 784 782 777 777 782 775 772 775 769 761 756 753 756 760 758 758 760 760 758 757 756 757 760 761 762 763 763 763 764 766 769 771 774 776 777 779 781 784 787 790 792 795 796 799 801 803 805 808 811 812 815 818 820 820 820 821 821 823 824 825 827 829 830 832 833 835 836 837 838
782 781 775 775 779 778 780 784 784 785 787 787 787 789 788 784 784 782 780 780 780 780 775 773 776 767 757 754 751 754 756 753 752 753 753 753 754 753 753 756 758 760 762 762 762 763 765 768 770 772 774 776 778 780 783 787 790 792 794 795 797 800 803 806 808 809 811 814 817 819 819 819 820 821 822 824 825 826 828 829 831 833 834 835 836 838
783 777 772 776 779 778 783 787 785 785 787 788 787 788 786 784 787 784 779 779 779 779 776 774 776 767 757 754 751 752 755 753 753 752 750 750 748 747 747 749 752 754 756 758 759 760 763 766 769 770 772 775 777 779 782 785 789 791 793 795 797 799 803 806 808 809 811 814 817 818 818 818 819 820 821 823 824 826 827 829 830 832 833 835 836 838
777 774 774 778 779 776 781 787 787 785 785 787 787 785 783 783 785 782 778 779 777 777 778 777 777 766 758 758 751 751 757 756 754 753 750 748 744 742 743 745 747 748 750 753 756 758 760 763 766 768 771 773 775 778 780 784 787 790 792 795 797 800 803 805 807 810 812 814 817 817 817 818 819 820 821 822 824 825 827 828 830 831 833 834 836 837
773 774 776 779 781 778 780 784 784 783 782 785 784 780 778 777 778 780 782 784 781 779 778 778 778 765 757 759 751 751 757 755 753 753 748 744 742 742 743 744 744 745 747 751 754 756 758 761 764 767 769 772 774 776 779 782 785 788 792 795 796 799 802 803 806 809 811 813 815 816 815 816 817 819 820 821 823 824 826 828 829 831 832 834 835 836
772 774 774 776 780 780 781 781 781 781 783 784 777 772 773 774 777 782 784 784 782 780 776 778 780 771 759 753 751 755 758 752 751 752 747 744 742 741 741 741 741 743 746 749 752 754 757 760 763 766 768 771 773 776 778 781 785 788 791 793 795 797 800 803 805 807 809 812 814 814 814 815 816 817 819 820 822 824 826 827 829 830 832 833 834 835
770 774 776 775 778 781 781 779 777 778 781 779 771 770 773 775 779 782 782 781 778 777 776 775 776 776 766 754 754 760 756 749 749 751 749 746 743 741 741 742 742 744 746 748 751 753 755 759 762 765 768 771 773 775 777 780 783 787 789 791 793 796 800 802 804 806 808 811 812 813 814 815 815 816 817 819 821 823 825 827 829 830 832 833 834 835
767 772 774 774 778 780 775 770 772 775 776 770 769 773 773 772 777 778 779 780 780 782 778 772 773 777 768 753 755 760 752 747 749 752 752 748 745 744 743 743 744 746 747 748 751 754 757 760 763 766 769 771 773 774 777 779 782 785 788 789 790 794 797 800 803 805 807 809 810 811 812 813 815 815 817 819 821 823 825 827 828 830 831 833 834 835
767 768 767 770 774 772 766 765 768 771 770 767 770 775 773 775 778 778 780 779 784 789 778 769 773 775 766 750 749 754 751 753 756 755 752 748 745 744 744 745 746 747 749 750 753 756 759 763 765 767 769 771 772 773 775 778 780 784 786 787 788 792 795 798 802 805 806 808 808 810 811 812 813 815 816 819 821 823 825 826 828 829 831 832 833 835
766 766 766 766 765 762 761 766 769 767 766 768 770 771 772 778 779 780 782 779 786 786 773 768 770 772 771 755 747 753 758 763 764 759 754 749 746 744 744 746 746 748 750 752 755 758 762 765 766 767 769 770 771 772 774 777 779 782 785 786 788 791 795 798 802 804 805 806 808 809 810 811 812 814 816 818 820 823 824 825 827 828 830 831 833 834
767 767 765 759 757 760 761 765 770 769 767 769 769 768 773 778 778 781 782 783 788 780 771 776 773 774 774 757 750 759 762 762 762 759 756 751 748 745 743 745 747 749 751 754 757 761 764 767 767 768 769 770 770 771 774 776 778 781 783 785 787 791 794 798 801 802 803 805 806 807 809 811 812 814 816 818 820 822 823 825 826 828 829 831 833 834
766 762 761 757 755 757 760 764 769 771 771 771 771 774 777 779 784 786 783 785 784 773 776 783 775 773 768 753 755 763 760 758 759 758 756 752 749 745 742 745 747 749 753 755 759 762 766 768 769 770 770 771 772 773 774 777 778 781 783 784 787 790 793 796 799 800 802 804 805 807 808 810 812 814 816 817 819 821 823 824 826 827 829 831 832 834
766 761 760 760 756 752 756 762 765 767 770 770 770 773 775 780 791 794 789 789 782 771 778 783 775 771 762 754 761 763 758 757 757 756 755 751 748 744 743 745 747 750 753 756 760 763 766 768 771 774 775 775 776 777 778 779 780 781 783 785 786 789 792 795 797 799 801 802 804 806 808 810 812 813 815 817 819 821 823 824 826 827 829 831 833 834
772 767 760 758 756 751 752 753 753 758 765 766 763 764 767 769 776 781 778 777 773 770 778 781 775 767 759 760 763 759 757 756 754 756 754 750 747 744 744 746 748 751 752 756 761 762 762 763 765 771 776 777 779 781 782 782 783 783 785 786 787 789 792 795 797 799 800 802 804 806 808 810 811 813 815 817 819 821 823 824 826 828 830 831 833 835
775 767 753 750 754 752 750 746 746 754 763 766 763 763 765 758 758 773 780 776 773 772 777 778 772 763 759 761 761 757 757 756 754 755 754 752 749 747 748 749 750 751 753 758 761 761 761 760 760 764 770 773 778 782 784 785 786 786 787 788 788 790 792 794 796 798 800 801 803 805 807 809 811 813 815 817 819 821 823 825 826 828 830 832 834 835
772 764 750 750 752 748 747 745 745 750 756 766 767 760 759 752 751 770 786 789 785 777 775 776 769 762 760 760 759 758 757 757 757 756 755 755 752 751 754 753 753 754 755 758 759 759 761 761 762 764 767 771 776 781 784 786 787 787 788 788 789 790 791 793 795 797 799 800 802 805 807 809 811 813 815 816 819 821 823 825 827 829 831 832 834 835
765 761 751 750 749 745 748 747 745 746 749 759 762 752 752 756 754 762 773 782 785 778 775 777 775 769 764 761 760 761 759 760 761 759 757 757 755 755 756 755 755 755 755 756 755 755 757 760 763 765 768 772 776 781 783 785 787 787 787 787 786 787 789 791 793 795 798 800 801 804 806 809 811 812 814 816 818 820 822 825 827 829 831 833 834 835
763 762 753 751 750 747 748 748 748 748 747 750 751 746 750 758 758 762 770 775 779 781 778 778 781 775 764 761 764 764 763 763 762 761 760 760 760 759 758 757 756 756 755 754 753 754 755 759 763 766 768 771 775 780 782 782 782 782 782 783 784 786 789 791 794 796 798 799 801 804 806 808 810 812 814 816 818 820 822 825 827 829 831 833 834 835
762 764 759 753 751 749 747 747 750 752 749 748 749 749 751 754 755 760 765 763 767 777 779 776 774 766 760 765 770 768 766 766 765 764 763 762 762 761 760 759 757 756 756 755 755 755 755 756 760 764 767 770 774 778 779 777 776 777 781 784 786 789 791 793 795 796 798 799 801 803 805 808 810 812 814 816 818 820 823 825 827 829 831 832 834 835
761 766 764 753 749 751 749 748 753 755 753 750 751 752 752 755 757 757 762 763 762 768 778 779 769 759 762 771 772 770 768 767 766 766 768 769 767 766 765 763 761 759 758 757 756 757 757 757 758 761 765 770 774 776 776 775 775 779 783 785 786 789 791 793 795 796 797 798 801 803 805 807 809 811 814 816 818 821 823 825 827 828 830 832 833 835
761 765 766 759 753 752 749 749 753 754 755 755 752 749 749 753 755 758 765 769 765 764 771 774 764 757 765 771 768 769 770 768 768 769 773 776 775 774 772 770 768 766 764 762 760 759 760 759 760 761 763 769 773 773 774 774 776 780 783 784 785 787 790 792 794 796 797 799 800 802 804 806 808 810 813 816 818 820 822 824 826 828 830 832 833 834
761 762 764 762 758 753 750 753 755 754 756 758 757 755 755 752 749 753 759 764 769 770 771 770 763 760 769 771 767 770 773 773 774 774 776 780 780 779 777 774 774 772 770 768 765 764 763 761 761 762 764 769 771 771 772 774 775 777 780 783 784 786 789 791 793 795 797 799 801 802 804 805 807 809 812 815 817 820 821 823 825 828 830 831 833 834
761 767 768 764 759 753 750 753 755 754 755 758 760 763 764 761 756 754 755 757 764 769 767 766 764 764 770 772 769 773 777 779 780 778 779 782 783 783 781 778 778 776 774 773 770 769 767 763 761 762 766 771 771 771 772 774 776 777 780 783 784 785 788 790 791 793 795 797 799 801 803 804 806 808 811 814 817 819 821 823 824 827 829 831 833 834
762 772 773 771 769 763 758 757 755 752 756 763 767 768 769 770 768 760 758 759 760 763 763 759 760 765 770 772 772 775 779 783 786 785 783 785 786 786 785 783 782 781 780 778 776 774 772 767 764 766 772 775 775 774 774 776 779 780 781 782 783 784 786 787 789 790 792 795 797 798 801 802 804 807 810 813 816 818 820 822 824 826 828 830 832 833
764 774 773 772 776 775 769 767 765 764 766 768 770 771 772 774 772 763 758 757 757 765 765 754 756 769 773 773 776 776 778 785 789 789 788 789 790 789 789 789 787 785 784 783 781 778 775 771 770 773 776 776 776 775 775 776 778 779 781 783 784 785 785 787 788 790 792 794 795 797 799 801 804 806 809 812 815 818 820 822 824 826 828 830 831 833
768 778 776 772 774 774 772 774 779 778 776 772 771 773 775 777 779 771 758 751 754 763 764 754 758 772 774 774 779 779 780 787 792 792 792 792 792 792 791 791 789 788 789 787 784 781 777 775 775 776 777 776 775 776 776 777 778 780 782 784 786 787 787 789 793 795 796 795 796 798 800 801 803 806 809 812 815 818 820 822 824 826 828 830 831 832
766 775 779 778 779 781 781 783 785 782 780 781 781 781 780 779 779 771 760 757 756 753 755 760 765 770 771 774 780 782 785 790 793 795 795 794 794 794 793 792 791 790 791 789 785 783 780 779 778 778 778 778 778 779 780 781 781 782 783 785 787 788 790 792 795 798 800 799 800 803 805 806 807 808 810 811 814 818 820 822 825 826 828 829 830 832
761 769 777 780 781 785 786 785 784 783 785 791 790 787 786 783 779 774 774 779 773 756 755 765 768 768 773 778 784 788 790 792 794 796 796 796 796 795 795 795 794 792 792 791 790 787 785 784 783 783 782 782 783 784 784 785 785 785 785 786 788 790 792 793 794 797 799 800 803 806 809 811 812 813 814 813 814 818 821 823 825 826 828 829 830 831
761 769 776 778 778 781 783 784 784 784 788 793 791 789 789 786 782 780 781 785 781 769 766 770 772 778 786 787 790 795 795 794 796 797 797 798 798 798 798 799 797 795 795 796 795 792 790 790 789 788 787 787 787 788 789 789 788 787 787 788 789 791 793 794 795 797 798 800 804 806 808 810 813 816 817 816 815 817 821 823 825 826 827 828 830 831
761 770 776 776 775 776 781 786 787 785 788 793 793 792 792 787 783 783 783 783 781 776 774 774 777 788 796 794 796 798 796 797 799 799 800 801 801 800 800 801 801 800 800 801 799 796 794 794 793 792 792 792 792 792 792 792 791 790 790 791 791 792 794 795 796 798 800 802 804 806 807 809 812 814 816 817 817 818 821 824 824 826 827 828 829 830
763 772 778 776 772 775 782 786 785 785 786 789 794 798 797 793 790 789 789 789 785 779 778 778 779 790 799 799 799 801 800 802 804 805 805 805 804 803 802 803 804 803 804 804 802 799 798 798 798 797 796 797 797 796 795 795 793 793 794 794 795 796 796 797 799 800 802 804 805 807 808 809 812 814 815 818 818 819 822 824 825 826 827 828 828 829
770 771 775 773 770 775 785 787 784 781 779 783 796 804 802 799 797 793 791 792 789 783 781 781 784 794 801 800 802 805 806 807 809 809 809 809 807 806 805 806 806 806 806 806 805 804 802 802 802 801 800 801 800 800 799 797 795 797 798 798 799 799 800 801 803 803 805 806 807 808 809 810 812 814 816 818 820 821 823 825 826 827 828 828 829 830
773 770 773 775 771 775 786 788 783 779 779 790 805 809 805 801 799 796 794 795 793 788 786 788 792 799 801 800 803 808 809 811 812 812 812 811 810 809 809 809 808 808 808 808 807 807 806 805 805 804 803 804 804 804 803 801 799 800 801 802 801 802 803 804 806 807 808 809 809 811 812 812 814 817 818 820 822 823 824 826 827 828 829 829 830 830
771 770 776 779 774 776 784 782 777 780 789 800 807 807 804 802 801 799 798 798 797 793 792 795 799 802 804 806 808 810 812 815 814 814 814 813 812 811 811 811 811 811 811 811 810 810 809 808 808 808 807 807 808 807 806 805 805 804 804 806 806 806 807 807 808 810 811 812 813 814 815 815 817 819 821 822 824 824 825 827 828 830 830 831 831 831
769 769 775 779 778 778 779 777 780 792 800 802 803 805 805 804 804 800 796 797 802 800 798 801 805 806 809 812 813 813 814 814 814 816 818 816 815 814 813 814 815 814 814 814 813 813 812 812 811 811 811 811 811 810 809 810 810 808 810 812 812 812 812 812 813 814 816 816 816 817 818 818 819 820 822 824 825 826 826 828 829 830 831 831 832 834
772 768 768 775 783 783 781 785 792 798 801 803 806 810 812 812 811 808 801 801 805 804 803 807 809 809 812 813 815 815 813 811 815 821 822 819 818 817 816 816 817 816 817 817 816 816 815 815 814 814 814 814 814 814 814 815 814 813 815 816 816 817 817 817 818 820 821 820 820 821 822 822 821 822 824 825 826 828 829 829 830 831 832 832 833 835
776 773 765 769 783 784 781 789 796 794 798 807 810 812 814 814 814 812 807 805 807 808 807 809 811 813 814 814 815 815 811 812 820 827 827 823 821 818 818 819 819 819 820 820 819 819 818 817 816 816 817 817 817 818 819 818 818 818 819 819 820 820 820 820 822 823 824 824 824 825 826 825 824 825 826 827 828 829 831 831 831 832 833 834 835 836
779 780 770 769 782 785 783 792 801 800 804 810 812 813 813 812 815 812 803 802 811 813 811 812 815 816 816 816 815 814 812 817 826 831 829 826 824 822 821 821 822 822 822 822 822 822 822 821 819 819 820 820 821 822 821 820 820 820 821 822 822 822 822 823 825 826 826 827 827 828 828 827 827 827 827 828 829 830 831 831 832 833 834 834 836 836
781 782 777 777 787 791 791 800 808 808 809 813 813 812 811 812 814 806 794 799 815 819 815 817 819 818 818 817 816 816 817 821 828 833 831 828 827 825 825 825 825 825 825 825 826 825 825 825 823 822 823 823 824 824 823 822 821 821 823 824 824 824 825 827 828 828 828 828 828 829 829 828 828 829 829 830 830 831 832 832 833 833 834 834 834 835
794 791 788 788 791 793 793 801 808 810 813 816 815 813 812 811 806 799 797 809 821 821 819 822 821 820 820 819 818 822 825 826 830 833 832 830 829 828 828 829 829 828 828 829 829 828 828 828 827 826 826 827 828 827 826 824 823 824 826 826 826 827 829 829 830 829 829 829 829 829 829 830 830 830 831 831 832 833 833 833 833 834 834 834 834 834
802 799 796 798 800 800 797 799 804 810 815 819 815 811 808 805 802 805 814 820 821 821 822 825 824 824 824 823 824 828 831 831 832 833 832 831 831 831 831 832 832 831 831 832 832 831 830 830 830 829 830 830 830 830 829 827 827 828 829 829 829 831 832 831 831 831 831 831 831 831 831 832 832 833 833 833 834 834 834 834 834 835 835 835 835 835
809 804 804 809 811 805 800 801 805 812 818 820 817 811 808 808 811 817 821 821 820 822 825 826 827 827 826 827 829 831 832 834 833 833 833 833 834 834 835 835 835 834 834 834 835 834 833 833 833 832 833 833 832 832 831 830 831 832 832 832 833 834 834 834 834 834 833 833 834 834 835 835 835 835 834 835 834 834 834 835 835 835 836 836 836 837
810 807 808 815 815 808 807 814 820 824 826 825 822 820 818 818 819 819 820 822 824 825 826 827 829 829 829 830 832 833 834 835 835 835 835 835 835 836 837 837 837 837 837 837 837 837 836 835 835 835 835 835 835 834 834 833 834 835 835 836 837 837 837 837 836 836 836 836 836 837 837 837 837 836 836 836 835 835 835 836 836 836 836 837 838 839
813 812 811 817 820 817 818 825 829 830 829 827 826 826 823 820 819 819 821 825 827 827 828 830 831 832 833 834 834 835 836 836 836 837 837 836 837 837 837 838 838 839 839 839 839 839 838 838 838 838 838 838 837 837 837 837 837 837 838 839 840 840 840 840 839 838 838 838 839 839 838 839 838 838 838 838 837 838 838 838 838 838 838 838 839 839
817 817 814 816 820 822 823 826 828 828 827 826 825 826 824 821 821 822 822 826 829 830 831 832 834 835 836 836 837 837 837 837 837 838 838 838 839 839 839 840 840 840 841 841 841 840 840 839 840 840 840 841 840 840 840 840 840 840 841 842 842 842 842 842 841 841 841 840 840 840 840 840 840 840 840 840 839 840 840 839 839 839 839 839 839 839
816 816 816 817 820 822 824 828 829 828 828 827 825 826 826 825 825 825 825 828 831 833 834 835 836 836 837 838 838 839 838 839 839 840 840 840 840 841 841 841 842 842 842 842 842 842 842 842 842 842 843 843 843 843 842 843 843 843 844 844 844 844 844 844 843 843 843 842 842 841 841 841 841 840 840 840 840 840 840 840 839 839 839 839 839 839
815 815 818 821 822 824 828 831 830 828 828 828 826 827 828 828 828 829 829 830 833 834 836 837 837 838 839 840 840 840 841 841 841 841 842 842 842 843 843 843 844 844 843 844 844 844 844 844 844 844 844 845 845 845 845 845 845 845 846 846 846 846 846 845 845 845 844 844 843 843 842 842 841 841 841 840 840 840 840 840 839 839 839 839 839 839
818 817 822 824 824 827 830 830 828 826 828 829 829 829 830 830 830 831 832 833 834 836 837 839 839 840 841 841 842 842 842 843 843 843 843 844 844 845 844 844 845 845 845 845 845 845 845 845 845 845 846 846 846 846 846 846 846 847 847 847 847 847 847 847 846 846 845 845 845 844 844 843 843 842 842 841 841 841 840 840 839 839 839 838 838 838
819 820 824 823 822 826 828 828 827 827 828 831 832 832 832 831 831 832 833 834 835 836 837 839 841 841 842 842 843 843 843 844 845 845 845 845 846 846 846 846 845 846 846 846 846 846 846 846 846 846 846 847 847 847 847 847 847 847 848 848 848 848 848 847 847 847 846 846 846 846 846 845 844 844 843 843 843 842 842 841 840 839 839 839 838 838
823 824 824 820 821 826 828 828 829 828 829 833 834 833 834 833 832 833 835 835 836 837 837 838 840 841 843 843 843 843 843 844 845 846 846 846 847 847 847 846 846 847 847 847 847 847 847 847 848 848 847 847 848 848 848 848 848 848 849 849 849 849 849 848 848 848 847 848 847 847 847 846 846 845 845 844 844 843 843 842 842 841 840 840 839 839